TimeCDT,TemperatureF,Dew PointF,Humidity,Sea Level PressureIn,VisibilityMPH,Wind Direction,Wind SpeedMPH,Gust SpeedMPH,PrecipitationIn,Events,Conditions,WindDirDegrees,DateUTC
12:53 AM,57.9,43.0,58,29.94,10.0,SSW,5.8,-,N/A,,Clear,200,2013-03-16 05:53:00
1:53 AM,59.0,43.0,55,29.94,10.0,SSW,9.2,-,N/A,,Clear,210,2013-03-16 06:53:00
2:53 AM,59.0,43.0,55,29.93,10.0,SW,9.2,-,N/A,,Clear,220,2013-03-16 07:53:00
3:53 AM,57.9,43.0,58,29.92,10.0,SW,11.5,-,N/A,,Clear,220,2013-03-16 08:53:00
4:53 AM,55.9,43.0,62,29.93,10.0,SW,9.2,-,N/A,,Clear,220,2013-03-16 09:53:00
5:53 AM,55.9,43.0,62,29.94,10.0,SSW,10.4,-,N/A,,Clear,210,2013-03-16 10:53:00
6:53 AM,54.0,43.0,66,29.96,10.0,SSW,11.5,-,N/A,,Clear,210,2013-03-16 11:53:00
7:53 AM,55.9,44.1,64,29.97,10.0,SW,8.1,-,N/A,,Mostly Cloudy,220,2013-03-16 12:53:00
8:53 AM,60.1,45.0,57,29.98,10.0,SW,11.5,-,N/A,,Scattered Clouds,230,2013-03-16 13:53:00
9:53 AM,64.0,45.0,50,29.96,10.0,WSW,13.8,20.7,N/A,,Clear,240,2013-03-16 14:53:00
10:53 AM,68.0,44.1,42,29.95,10.0,SW,13.8,-,N/A,,Partly Cloudy,230,2013-03-16 15:53:00
11:53 AM,71.1,44.1,38,29.93,10.0,WSW,12.7,17.3,N/A,,Partly Cloudy,240,2013-03-16 16:53:00
12:53 PM,73.9,44.1,34,29.92,10.0,WSW,13.8,24.2,N/A,,Partly Cloudy,250,2013-03-16 17:53:00
1:53 PM,75.0,45.0,34,29.90,10.0,SW,13.8,-,N/A,,Mostly Cloudy,230,2013-03-16 18:53:00
2:53 PM,75.9,46.0,35,29.88,10.0,West,15.0,23.0,N/A,,Mostly Cloudy,260,2013-03-16 19:53:00
3:53 PM,75.9,46.9,36,29.87,10.0,SW,15.0,19.6,N/A,,Mostly Cloudy,230,2013-03-16 20:53:00
4:53 PM,75.0,46.9,37,29.86,10.0,SW,11.5,-,N/A,,Mostly Cloudy,230,2013-03-16 21:53:00
5:53 PM,73.9,48.0,40,29.86,10.0,WSW,8.1,-,N/A,,Mostly Cloudy,250,2013-03-16 22:53:00
6:53 PM,69.1,46.9,45,29.87,10.0,WSW,8.1,-,N/A,,Mostly Cloudy,240,2013-03-16 23:53:00
7:53 PM,66.9,46.0,47,29.89,10.0,WSW,3.5,-,N/A,,Mostly Cloudy,250,2013-03-17 00:53:00
8:53 PM,63.0,46.9,56,29.91,10.0,Calm,Calm,-,N/A,,Mostly Cloudy,0,2013-03-17 01:53:00
9:53 PM,61.0,46.9,60,29.93,10.0,SE,3.5,-,N/A,,Partly Cloudy,130,2013-03-17 02:53:00
10:53 PM,57.0,48.9,74,29.93,10.0,SSE,3.5,-,N/A,,Clear,150,2013-03-17 03:53:00
11:53 PM,55.0,48.0,77,29.93,10.0,SSE,4.6,-,N/A,,Clear,160,2013-03-17 04:53:00